Concord, CA

11:05 AM PDT on June 22, 2017 (GMT -0700)
Buchanan

Weather History for KCCR - August, 2013

Change the Weather History Date:

Saturday, August 3, 2013

  Actual Average Record
Temperature  
Mean Temperature 70 °F 72 °F  
Max Temperature 84 °F 88 °F 97 °F (2007)
Min Temperature 55 °F 58 °F 53 °F (2010)
Degree Days  
Heating Degree Days 0    
Month to date heating degree days 0  
Since 1 June heating degree days 15  
Since 1 July heating degree days 4  
Cooling Degree Days 5    
Month to date cooling degree days 15  
Year to date cooling degree days 483  
Since 1 June cooling degree days 391  
Growing Degree Days 18 (Base 50)    
Moisture  
Dew Point 51 °F    
Average Humidity 60    
Maximum Humidity 86    
Minimum Humidity 33    
Precipitation  
Precipitation 0.00 in - 0.00 in (2017)
Month to date precipitation 0.00  
Year to date precipitation 2.06  
Since 1 July precipitation 0.00  
Sea Level Pressure  
Sea Level Pressure 29.88 in    
Wind  
Wind Speed 10 mph (WSW)    
Max Wind Speed 21 mph    
Max Gust Speed 25 mph    
Visibility 10 miles    
Events      
T = Trace of Precipitation, MM = Missing Value Source: NWS Daily Summary

Daily Weather History Graph

Daily Weather History Graph

Search for Another Location

Airport or City:

Trip Planner

Search our weather history database for the weather conditions in past years. The results will help you decide how hot, cold, wet, or windy it might be!

Date:

Astronomy

Aug. 03, 2013 Rise Set
Actual Time 6:13 AM PDT 8:14 PM PDT
Civil Twilight 5:44 AM PDT 8:43 PM PDT
Nautical Twilight 5:08 AM PDT 9:19 PM PDT
Astronomical Twilight 4:30 AM PDT 9:57 PM PDT
Moon 3:27 AM PDT (8/3) 6:00 PM PDT (8/3)
Length of Visible Light 14h 59m
Length of Day
14h 01m
Waning Crescent, 9% of the Moon is Illuminated
Aug 3
Waning Crescent
Aug 6
New
Aug 14
First Quarter
Aug 20
Full
Aug 28
Last Quarter

Hourly Weather History & Observations

Time (PDT) Temp. Dew Point Humidity Pressure Visibility Wind Dir Wind Speed Gust Speed Precip Events Conditions
12:53 AM 57.0 °F 51.1 °F 81% 29.88 in 10.0 mi SSW 16.1 mph 23.0 mph N/A   Clear
1:53 AM 57.0 °F 51.1 °F 81% 29.87 in 10.0 mi SSW 18.4 mph - N/A   Clear
2:53 AM 55.9 °F 51.1 °F 84% 29.87 in 10.0 mi SSW 10.4 mph - N/A   Clear
3:53 AM 55.9 °F 51.1 °F 84% 29.87 in 10.0 mi SSW 12.7 mph - N/A   Clear
4:53 AM 55.9 °F 51.1 °F 84% 29.88 in 10.0 mi South 12.7 mph - N/A   Clear
5:53 AM 55.0 °F 51.1 °F 86% 29.89 in 10.0 mi SSW 10.4 mph - N/A   Clear
6:53 AM 55.9 °F 51.1 °F 84% 29.90 in 10.0 mi SSW 9.2 mph - N/A   Partly Cloudy
7:53 AM 57.9 °F 51.1 °F 78% 29.92 in 10.0 mi South 12.7 mph - N/A   Partly Cloudy
8:53 AM 60.1 °F 51.1 °F 72% 29.93 in 10.0 mi SSW 11.5 mph - N/A   Clear
9:53 AM 64.0 °F 52.0 °F 65% 29.93 in 10.0 mi SSW 11.5 mph - N/A   Clear
10:53 AM 69.1 °F 52.0 °F 54% 29.92 in 10.0 mi South 8.1 mph - N/A   Clear
11:53 AM 73.0 °F 52.0 °F 48% 29.90 in 10.0 mi Variable 3.5 mph - N/A   Clear
12:53 PM 75.9 °F 53.1 °F 45% 29.89 in 10.0 mi NNW 11.5 mph - N/A   Clear
1:53 PM 79.0 °F 54.0 °F 42% 29.88 in 10.0 mi NW 13.8 mph - N/A   Partly Cloudy
2:53 PM 82.0 °F 52.0 °F 35% 29.87 in 10.0 mi Variable 4.6 mph 17.3 mph N/A   Clear
3:53 PM 82.9 °F 50.0 °F 32% 29.85 in 10.0 mi WNW 16.1 mph - N/A   Clear
4:53 PM 81.0 °F 48.9 °F 33% 29.85 in 10.0 mi WNW 13.8 mph - N/A   Clear
5:53 PM 79.0 °F 51.1 °F 38% 29.84 in 10.0 mi NW 16.1 mph - N/A   Clear
6:53 PM 75.0 °F 51.1 °F 43% 29.85 in 10.0 mi WSW 12.7 mph - N/A   Clear
7:53 PM 71.1 °F 50.0 °F 47% 29.85 in 10.0 mi West 8.1 mph - N/A   Clear
8:53 PM 66.9 °F 48.9 °F 52% 29.87 in 10.0 mi WNW 4.6 mph - N/A   Clear
9:53 PM 63.0 °F 48.0 °F 58% 29.89 in 10.0 mi Calm Calm - N/A   Clear
10:53 PM 57.9 °F 51.1 °F 78% 29.90 in 10.0 mi North 5.8 mph - N/A   Clear
11:53 PM 57.0 °F 51.1 °F 81% 29.91 in 10.0 mi Calm Calm - N/A   Clear